Wind_Speed
4 3 3 2 2 2 2 3 3 4 5 5 6 7 7 8 9 10 11 11 12 13 14 14 15 16 17 18 18 19 20 20 21 21 21 21 21 22 22 23 24 24 25 26 26 26 27 27 28 29 30 30 30 30 30 30 30 31 31 32 33 34 35 35 36 37 37 37 39 41 43 44 44 43 44 46 47 49 52 52 52 53 53 53 55 58 56
3 3 3 2 2 2 3 3 3 4 5 5 6 7 7 8 9 9 10 11 12 13 14 14 15 15 16 17 17 18 19 19 20 20 21 21 21 22 23 23 24 25 26 26 27 28 28 28 29 30 30 31 31 31 31 31 32 32 33 34 35 36 37 38 40 40 40 40 40 42 44 46 46 45 45 46 47 50 52 52 54 54 53 55 57 58 58
3 2 2 2 2 3 3 3 4 4 5 6 6 7 8 8 9 10 10 11 12 13 13 14 15 15 16 16 17 18 19 19 20 20 21 22 23 23 24 25 26 27 27 28 29 29 30 30 31 31 31 32 32 32 32 33 34 34 35 36 37 38 39 40 42 44 44 44 44 45 46 47 48 48 47 47 49 52 54 54 55 54 55 58 57 58 58
4 4 4 4 4 4 5 5 6 7 7 8 8 9 9 10 11 11 12 12 13 14 14 15 16 16 17 18 18 19 20 20 21 22 23 24 24 25 26 27 28 28 29 30 30 31 31 32 32 32 33 33 33 33 34 35 36 36 38 39 40 41 41 41 42 44 45 45 44 45 47 48 48 49 49 49 51 53 55 55 55 54 57 59 56 57 60
6 6 6 6 6 7 7 8 8 9 10 10 11 12 12 12 13 13 14 14 15 16 17 17 18 18 19 20 20 21 22 22 23 24 25 26 26 27 28 29 30 30 31 31 32 32 33 33 34 34 34 35 36 36 37 38 39 40 41 42 42 44 44 43 44 45 46 46 45 46 48 49 49 50 50 50 52 54 55 55 54 55 60 60 55 56 59
7 7 8 8 8 9 9 10 10 11 11 12 13 14 14 14 15 16 17 18 18 19 19 20 20 21 22 22 23 24 24 25 26 27 28 28 29 30 31 31 32 33 34 34 34 35 35 35 36 36 37 38 38 39 40 41 42 43 44 45 45 47 46 46 47 47 47 48 48 48 50 50 51 52 51 50 53 55 54 53 54 56 60 59 55 56 58
8 9 9 9 10 10 11 12 12 13 14 14 15 16 17 17 18 19 20 20 21 22 22 23 24 24 25 26 26 27 28 29 30 31 31 32 33 34 35 35 36 37 37 38 39 39 39 39 39 39 40 41 42 42 43 44 45 46 47 48 49 50 50 50 51 50 49 50 51 51 52 52 53 52 51 51 53 53 53 53 54 56 58 57 55 57 56
9 10 10 11 11 12 12 13 14 15 16 17 17 18 19 20 21 22 23 24 24 25 25 26 27 28 28 29 30 30 31 32 33 34 35 36 37 37 38 39 40 41 42 43 43 44 44 44 45 45 45 46 46 47 47 48 49 49 50 51 52 53 53 53 54 54 52 52 53 54 54 55 54 53 53 53 52 52 53 53 54 55 56 55 55 57 56
10 11 12 12 13 14 15 15 16 17 18 19 20 21 22 23 23 24 25 26 27 27 28 29 30 30 31 32 33 34 35 35 36 37 38 39 40 41 41 42 43 44 45 46 47 47 48 49 49 49 50 50 51 51 51 52 53 53 53 54 54 55 55 55 56 57 55 54 55 56 56 56 56 54 53 52 52 52 53 53 53 54 55 55 56 58 56
13 13 14 15 16 17 17 18 19 20 21 22 23 24 24 25 26 27 28 28 29 30 30 31 32 33 34 35 35 36 37 38 39 40 41 42 43 43 44 45 46 47 48 49 49 50 50 51 51 52 52 53 53 54 54 54 54 55 55 55 55 56 56 56 57 58 57 55 56 57 57 57 56 54 53 53 53 53 53 53 52 53 53 55 57 57 55
15 15 16 17 18 19 20 21 22 23 23 24 25 25 26 27 27 28 29 29 29 30 31 31 32 33 34 35 36 37 38 39 40 42 43 44 46 47 47 48 49 50 50 51 51 52 53 53 53 54 54 55 55 55 55 55 55 55 56 56 56 56 56 56 57 59 58 56 56 57 57 57 55 53 53 53 53 53 53 52 51 51 52 55 57 56 54
16 17 18 18 19 19 20 20 20 21 21 21 22 22 22 23 23 23 24 25 25 26 27 28 28 29 30 31 33 34 35 37 39 40 42 44 46 48 49 51 52 52 53 54 54 54 55 55 55 55 55 56 56 56 56 56 56 56 56 56 56 55 55 56 57 58 58 56 56 58 58 56 53 50 49 51 52 52 52 52 51 49 51 56 58 56 54
15 15 14 14 14 13 13 13 13 13 13 14 14 15 15 17 18 19 20 20 21 22 23 24 25 26 28 29 31 32 34 35 37 39 41 42 44 46 48 50 52 53 55 56 56 57 57 57 57 57 56 57 56 56 56 55 55 54 54 54 54 54 55 55 55 56 56 55 55 56 57 55 51 47 47 50 51 50 52 54 51 46 49 57 59 56 54
7 7 6 6 5 5 6 6 7 7 8 9 10 11 12 13 15 16 17 18 19 21 22 23 25 26 27 29 31 32 34 35 37 39 40 42 43 45 47 49 50 52 54 55 57 58 58 59 59 58 58 58 57 56 55 55 54 53 52 52 53 53 53 53 54 55 55 55 54 55 56 54 49 46 48 49 49 48 51 56 54 49 51 58 58 55 53
2 1 0 1 3 4 5 6 7 8 9 9 10 11 12 13 14 15 17 18 19 21 23 24 26 27 29 30 31 33 34 36 38 39 41 42 43 45 47 48 50 51 53 54 55 57 58 58 59 59 59 59 58 58 57 56 55 53 52 51 52 52 52 52 53 53 53 54 55 55 55 53 48 46 46 46 45 46 50 55 56 53 55 57 56 54 54
2 1 2 4 5 7 8 9 10 11 11 12 12 12 13 14 15 17 18 19 21 23 24 25 27 28 30 31 32 33 35 37 38 39 41 42 44 46 47 49 50 50 52 53 54 55 55 56 57 57 57 57 57 57 56 55 54 53 52 51 51 51 51 51 51 51 50 51 52 52 52 49 44 42 42 42 44 46 51 56 58 57 56 57 57 56 54
3 5 7 8 9 10 11 12 13 13 14 14 14 15 16 17 19 21 22 23 24 26 27 28 29 31 32 32 34 35 36 38 39 40 42 43 45 47 48 49 50 51 51 52 52 53 53 53 53 54 54 54 54 55 54 53 53 52 51 51 50 49 49 49 49 49 48 49 49 49 48 46 40 36 37 41 46 49 54 59 61 59 57 58 58 56 53
7 8 10 11 12 13 14 14 15 16 17 17 18 19 20 22 23 24 26 27 28 29 31 31 32 34 35 36 37 38 39 40 42 43 44 45 47 48 50 52 53 53 53 52 52 52 51 50 51 51 50 50 50 52 51 50 50 50 50 50 50 49 49 49 48 48 48 49 49 48 46 43 39 38 40 45 49 52 55 60 62 60 58 58 58 56 53
9 11 12 13 14 15 16 17 18 19 20 21 22 24 25 26 27 28 30 31 32 33 34 35 36 37 38 39 40 41 42 43 44 45 46 47 48 48 50 53 54 55 55 53 51 51 50 49 49 49 49 48 48 49 48 47 48 48 48 49 49 50 50 49 48 49 49 49 50 50 47 44 42 45 48 51 53 56 58 60 62 62 62 61 59 57 56
12 14 15 15 16 17 18 19 21 22 23 24 26 27 29 30 31 33 34 35 36 37 38 38 39 39 40 41 42 43 43 45 46 46 47 48 48 48 49 52 55 56 56 54 52 50 50 48 48 49 48 47 47 48 47 46 46 46 47 48 49 49 51 50 49 50 52 52 52 51 50 48 48 51 53 55 55 57 60 61 61 61 63 64 62 59 58
15 16 17 18 19 20 21 22 23 24 25 26 28 29 31 33 34 35 37 38 39 40 40 41 41 42 42 43 44 44 44 45 46 47 48 49 49 49 49 51 54 56 56 55 53 51 50 49 48 49 49 48 48 48 48 48 46 44 45 48 48 48 50 51 50 51 53 55 54 52 51 51 52 52 53 54 55 56 60 64 63 62 63 65 63 57 55
17 18 19 20 21 23 24 25 26 27 28 29 30 32 33 35 37 38 39 40 41 41 42 42 42 43 44 44 45 45 45 45 46 48 49 49 49 49 49 50 53 55 56 56 54 51 50 49 49 48 48 49 48 48 49 50 48 45 45 47 48 48 49 51 51 51 52 54 54 53 53 53 54 55 56 56 56 57 60 63 63 61 61 61 59 55 52
19 20 22 23 24 26 27 28 29 29 30 32 33 34 36 37 38 39 40 41 42 43 43 43 43 43 44 45 45 45 45 46 47 48 49 49 49 49 48 49 51 53 54 54 53 51 49 48 48 48 48 48 48 48 49 49 48 47 46 46 47 49 49 50 50 51 52 51 49 52 56 55 54 57 59 57 54 53 55 57 57 57 58 58 59 58 56
22 23 24 26 27 28 29 30 31 32 33 34 35 37 38 39 39 40 41 41 42 43 43 43 43 44 44 45 46 46 46 47 48 49 49 49 49 48 48 48 49 50 51 52 52 51 49 48 48 48 47 47 48 49 49 49 49 49 48 47 48 49 49 49 50 51 52 50 46 49 55 54 52 54 56 55 54 53 54 56 56 57 59 60 62 63 61
25 26 27 28 29 30 30 31 32 33 34 35 36 38 39 40 40 40 41 41 42 43 43 43 43 43 44 45 46 46 47 48 48 49 49 48 48 48 47 46 47 48 49 50 50 50 50 49 48 48 47 48 48 48 49 50 49 49 49 48 48 48 48 49 50 50 52 51 48 50 53 50 49 53 55 55 56 56 56 57 58 58 59 60 61 63 63
28 29 30 30 31 32 32 32 33 33 34 35 37 38 39 40 40 40 41 41 42 43 43 43 42 42 44 45 45 46 47 48 48 48 48 47 46 46 45 45 46 47 48 48 48 48 48 48 48 49 49 49 50 49 49 48 49 50 49 46 46 48 49 50 52 53 53 53 53 55 56 51 49 54 59 60 59 59 59 60 60 60 59 59 59 60 61
30 31 32 33 33 34 34 34 34 34 35 36 37 39 39 39 40 40 41 41 42 42 42 42 42 42 44 45 45 46 47 47 47 47 47 46 45 45 44 44 45 46 47 48 47 47 47 47 48 49 49 49 50 50 49 48 48 48 47 46 48 51 53 53 55 56 55 54 55 58 60 56 53 56 61 63 63 62 61 61 61 61 60 59 57 56 57
33 34 35 35 36 36 36 36 36 36 36 37 38 39 39 39 40 40 41 41 42 43 43 42 43 43 44 45 46 47 46 46 46 46 46 45 44 44 43 44 45 45 47 48 47 47 47 47 47 47 47 48 49 49 48 49 50 50 49 49 51 52 53 54 56 57 55 54 55 57 59 59 57 57 59 61 62 62 61 61 61 61 60 60 59 57 56
36 37 37 38 38 38 38 37 37 37 38 39 39 40 40 41 41 41 41 42 43 43 43 44 44 45 46 47 47 47 46 46 46 45 45 44 44 43 44 44 45 45 46 47 47 47 47 46 45 44 44 45 47 47 46 48 50 50 50 51 51 51 52 54 56 57 56 56 56 58 59 60 59 59 60 61 62 62 62 62 62 62 61 61 61 60 59
38 39 40 40 40 40 39 39 39 39 40 40 40 41 41 42 42 42 42 43 43 43 44 45 46 47 47 48 47 46 46 46 45 45 44 44 44 44 44 45 45 45 46 47 47 47 46 46 45 43 41 42 44 45 45 47 49 48 48 49 49 50 51 53 54 56 57 57 57 59 60 61 61 62 62 63 63 64 64 63 63 62 62 61 61 61 60
40 41 42 42 42 42 41 41 41 42 42 42 42 42 42 42 43 43 43 43 43 44 45 46 47 47 47 47 46 46 46 46 45 44 44 44 44 44 44 45 46 45 46 47 47 47 47 47 45 43 42 42 44 45 47 49 49 48 48 49 49 49 49 50 51 54 55 55 55 56 58 59 60 62 62 63 64 64 64 64 64 63 62 61 60 60 60
42 43 44 44 44 44 44 44 44 44 44 44 43 43 43 44 44 45 45 44 45 45 46 47 47 47 47 47 47 47 47 45 45 44 44 44 43 44 44 45 46 46 47 47 47 47 47 48 47 45 44 45 46 47 49 50 50 50 50 50 49 50 50 51 52 54 55 55 55 56 57 58 59 60 61 62 64 65 66 66 65 65 64 63 62 61 60
43 44 45 45 46 46 46 45 45 46 45 45 44 44 44 45 45 46 46 46 46 46 47 47 47 47 48 48 48 48 47 46 45 44 44 44 44 45 45 46 47 48 48 49 48 48 49 49 49 48 48 48 49 51 53 53 54 55 54 54 53 54 55 55 56 57 57 59 60 60 60 61 62 63 64 65 66 68 69 69 68 67 66 65 64 63 62
43 44 45 46 46 46 46 46 46 46 46 45 44 44 45 46 47 47 48 48 48 48 48 47 47 48 48 49 49 49 48 47 46 45 45 45 46 46 46 47 48 49 50 50 50 50 50 50 50 50 50 50 50 52 55 56 57 58 58 58 59 59 60 60 61 61 61 62 63 63 64 66 67 68 68 68 69 69 70 71 72 71 69 67 66 65 64
43 44 45 45 46 46 47 47 47 47 46 45 45 45 47 48 48 49 49 49 49 48 48 48 48 48 49 50 50 50 49 49 48 47 47 47 47 48 48 49 50 52 53 53 53 52 52 53 53 53 52 51 51 53 56 58 59 59 60 60 61 61 62 63 64 65 65 65 66 66 67 69 70 70 70 70 70 70 70 71 72 72 71 68 66 65 65
44 45 46 46 47 47 48 48 49 49 48 47 46 48 49 49 50 50 50 50 49 49 49 49 49 50 51 52 52 52 51 51 50 49 50 50 50 50 52 53 54 55 56 56 56 55 55 56 57 55 54 53 52 53 57 60 60 61 62 63 64 64 65 65 66 67 67 68 69 70 71 72 72 72 72 72 72 72 71 71 70 71 71 69 67 65 64
45 46 47 47 48 49 49 50 51 51 50 48 49 50 51 51 52 52 51 50 50 50 49 50 50 51 52 53 54 54 53 52 52 52 52 53 53 54 55 57 57 58 59 60 59 58 59 60 59 58 57 56 55 56 59 62 63 63 64 65 67 68 69 70 70 70 70 70 71 72 74 75 75 74 75 75 74 74 73 71 70 69 69 69 68 66 65
46 47 48 48 49 50 50 51 52 52 51 50 50 52 53 53 54 53 52 51 51 51 51 51 52 52 53 54 55 55 55 55 55 55 55 56 57 57 59 60 62 63 64 64 63 64 64 63 63 63 62 59 58 59 62 65 66 66 67 68 69 71 72 74 74 74 74 74 74 75 77 78 78 78 79 79 79 78 76 74 71 70 69 69 69 68 67
47 48 49 50 50 50 51 52 53 53 51 51 53 54 55 56 56 54 53 52 52 52 52 52 53 54 54 55 56 57 57 57 57 57 57 59 60 61 62 63 65 67 69 68 68 69 69 68 68 70 68 65 63 64 66 68 69 70 70 71 72 73 74 75 77 78 79 79 79 80 81 83 83 84 84 84 84 83 81 78 74 72 71 70 70 69 68
48 49 50 50 50 51 52 53 53 53 52 53 55 56 57 57 57 55 54 54 54 54 54 54 55 55 56 57 57 58 59 59 59 59 59 60 62 63 64 66 68 70 72 72 72 73 74 73 74 75 73 69 68 70 72 73 74 74 74 74 75 75 76 77 78 80 81 82 83 84 85 86 88 88 88 88 87 86 84 80 77 74 73 73 72 71 70
49 50 51 51 51 52 53 54 54 54 54 55 56 57 58 58 58 57 56 55 55 55 55 56 57 57 58 59 59 59 60 60 61 62 62 62 63 65 66 68 70 73 74 75 75 76 77 78 79 78 75 72 73 76 77 78 78 78 78 79 80 80 81 81 82 83 85 87 88 89 90 90 91 91 91 91 90 88 86 83 80 77 76 76 75 74 73
49 51 52 53 53 54 54 55 55 55 56 56 57 58 59 59 58 58 57 57 57 57 58 58 58 59 60 61 61 62 62 63 63 64 64 65 66 68 68 70 73 75 76 77 78 79 80 81 82 80 77 77 79 81 82 83 83 83 83 84 84 85 85 86 87 88 90 91 93 94 94 94 95 95 94 94 93 91 89 86 85 83 80 78 77 76 75
48 50 52 53 54 54 55 55 55 55 56 57 58 59 60 59 59 58 58 58 59 59 59 60 60 60 62 63 63 64 64 64 64 65 67 68 69 71 72 73 75 77 79 80 80 81 82 83 83 82 82 84 86 86 86 87 87 87 86 87 87 89 90 92 93 94 94 96 97 97 97 97 97 97 97 96 96 95 93 91 89 87 86 83 80 78 77
47 48 50 51 52 52 52 53 53 54 55 57 58 59 60 59 59 59 59 59 60 60 61 61 62 62 63 64 65 65 65 65 66 67 69 70 71 73 75 77 78 80 83 83 84 85 86 86 86 86 88 89 90 90 90 90 90 90 90 91 92 94 96 97 97 98 98 98 99 99 99 100 99 99 98 98 97 97 96 94 92 90 89 87 85 82 81
46 46 47 47 48 48 49 50 51 53 55 57 58 59 59 59 59 59 60 60 61 62 62 63 64 64 65 66 67 66 66 67 68 70 72 73 74 76 78 79 81 84 86 87 88 89 89 89 90 92 93 94 94 94 93 93 93 95 96 97 98 99 100 101 101 101 101 101 101 101 101 101 101 101 100 99 97 96 95 94 93 92 91 89 87 85 84
44 44 43 44 44 45 47 49 51 53 55 57 57 58 58 58 59 60 61 61 62 63 64 65 66 66 67 68 67 67 67 69 71 72 74 76 78 79 80 81 84 88 91 92 92 92 93 94 95 96 96 97 97 97 97 98 99 100 102 103 103 104 104 104 104 104 103 103 103 102 102 101 100 100 99 98 95 93 92 92 91 91 91 90 88 87 85
42 41 41 42 43 44 46 49 51 53 55 56 56 57 57 58 59 60 61 62 63 64 65 66 67 68 68 69 68 68 70 72 73 74 75 78 81 82 83 84 87 91 94 94 95 95 96 97 98 99 99 100 101 102 102 103 104 105 106 107 107 107 107 107 106 105 104 103 102 101 100 99 97 97 96 94 92 89 87 86 86 87 87 88 87 85 84
39 40 41 42 44 45 47 49 51 53 54 55 55 56 57 58 59 60 62 63 65 66 67 68 69 70 69 70 70 71 72 74 75 76 78 80 83 85 87 89 92 94 96 96 97 99 100 100 101 102 103 104 105 106 107 108 109 110 110 111 110 110 109 108 106 105 103 102 100 99 97 95 93 91 89 88 86 84 81 80 80 81 81 82 81 80 79
39 41 42 44 45 47 48 50 51 52 53 54 55 56 57 58 59 61 63 64 66 67 68 69 70 71 71 72 73 74 75 76 78 80 81 83 86 89 92 94 96 97 98 99 101 102 103 103 104 105 106 108 109 111 111 112 113 113 113 112 111 110 108 106 105 103 101 99 96 94 91 89 86 84 82 80 79 77 76 75 74 74 74 74 74 73 73
41 43 44 46 47 48 50 51 51 52 53 55 56 57 57 58 59 61 63 65 66 68 70 71 72 73 73 75 76 77 78 79 81 82 84 87 90 93 96 98 99 100 101 102 103 104 105 106 108 109 111 112 113 114 114 115 115 114 113 111 109 107 104 102 100 98 95 92 89 86 82 79 77 75 73 72 72 71 70 69 67 67 67 66 66 66 65
43 45 46 47 49 50 52 52 53 54 55 56 57 57 58 60 61 63 65 67 68 69 71 72 74 75 76 77 79 80 81 82 84 85 88 90 93 96 99 101 102 102 104 105 106 107 108 110 112 114 115 116 117 117 116 116 114 111 108 105 102 99 97 95 93 91 88 85 81 78 75 73 70 68 67 67 66 66 65 63 61 60 60 59 59 58 58
46 47 48 50 51 53 53 54 55 55 56 56 57 58 60 62 64 66 67 69 70 71 72 74 76 78 79 80 81 83 85 86 88 90 91 93 96 99 102 104 105 105 107 108 110 111 113 114 116 117 118 118 118 117 114 111 107 103 100 97 94 92 90 89 86 84 82 80 78 76 73 71 68 66 64 63 62 61 61 60 58 56 55 55 54 53 53
Wind_Direction
185 196 211 224 241 260 279 287 292 299 301 304 308 309 308 307 307 309 310 309 310 307 306 306 305 304 305 305 304 304 304 304 304 304 303 303 302 302 301 302 302 303 303 303 302 301 301 301 301 300 300 300 300 300 299 299 299 299 299 300 301 301 302 302 303 304 308 311 312 312 313 313 316 319 319 320 320 320 321 323 324 325 326 325 324 327 331
176 188 202 219 234 251 267 278 287 293 296 299 302 305 306 306 307 310 310 311 311 309 309 309 308 306 305 304 304 303 303 303 303 303 302 301 300 299 299 299 300 300 300 299 299 299 299 299 299 298 298 298 298 298 298 298 298 298 298 299 300 301 302 303 302 302 303 306 309 311 311 312 316 318 319 320 320 319 320 322 323 324 324 323 323 325 328
190 203 218 234 250 265 278 288 297 301 305 308 308 310 311 310 311 313 314 315 314 313 313 313 311 310 308 306 306 305 304 303 303 303 302 301 300 299 299 299 299 299 299 298 298 298 298 297 297 297 297 297 297 297 297 297 297 298 298 299 300 301 303 306 306 306 306 307 309 311 310 311 314 316 317 319 319 318 319 321 322 322 320 321 324 323 324
224 234 246 259 270 280 288 295 300 304 307 310 311 311 312 312 312 313 314 314 313 312 312 311 310 309 308 307 306 305 303 303 302 302 301 301 300 300 299 299 299 298 298 298 298 297 297 297 296 296 296 296 296 296 296 296 297 298 298 299 300 300 302 305 307 308 309 311 313 312 310 311 313 314 316 317 316 316 317 319 320 319 317 320 323 321 321
238 245 253 262 270 277 284 290 295 299 302 304 305 306 307 308 308 308 308 309 308 307 307 306 306 305 305 304 303 302 302 301 301 300 300 299 299 298 298 298 298 298 297 297 297 297 297 297 296 296 296 296 296 296 297 297 298 298 299 300 300 299 301 304 305 306 308 310 311 311 310 311 311 313 314 314 313 314 316 317 318 316 316 319 321 319 320
248 254 260 267 273 278 283 287 290 293 296 298 299 301 303 304 304 305 305 305 305 305 304 304 304 303 303 302 302 301 301 300 300 299 298 298 297 297 297 297 297 297 297 297 296 295 296 296 296 296 296 296 297 297 297 298 299 300 300 301 301 300 300 302 303 304 306 308 309 309 309 310 311 312 313 311 311 312 314 315 316 315 316 318 319 317 320
258 264 269 275 279 284 288 292 295 298 301 302 303 305 306 307 307 307 307 307 307 307 306 306 306 305 304 304 303 302 302 301 300 299 299 298 298 297 297 297 297 297 297 297 296 296 296 295 295 296 296 297 297 297 298 299 299 300 301 301 301 301 301 301 301 301 303 305 307 307 307 308 310 312 311 309 310 311 313 314 315 314 315 316 316 316 320
266 272 278 284 288 292 297 300 303 305 307 308 309 310 311 310 311 311 311 311 311 310 310 309 309 308 307 306 305 304 303 302 301 301 300 299 298 298 297 297 297 297 297 296 296 296 296 296 296 296 296 297 297 298 298 298 298 299 300 300 300 300 300 300 300 300 301 303 304 304 305 306 308 309 308 308 309 310 312 313 313 313 314 315 314 315 318
280 286 291 295 298 300 302 304 305 307 307 308 309 309 310 310 310 310 310 309 309 309 309 308 307 306 306 305 304 304 303 302 301 300 300 299 298 297 296 296 295 295 294 294 294 294 294 294 294 294 294 295 295 296 296 296 297 297 298 298 298 299 300 300 299 299 300 301 301 301 302 304 307 308 307 307 308 309 310 311 312 313 313 313 312 313 316
291 294 297 299 301 302 304 304 305 305 306 306 307 307 307 307 307 307 306 306 306 306 305 305 304 304 303 303 302 302 301 300 300 299 298 297 296 295 295 294 293 293 292 292 291 291 291 291 291 291 292 292 292 293 294 294 295 295 296 296 297 298 298 299 298 298 299 300 299 299 300 302 305 306 306 305 306 307 308 310 311 313 312 310 310 312 315
293 296 298 299 300 302 303 303 304 304 305 305 306 305 305 306 306 306 305 305 306 306 305 306 306 305 306 305 305 304 303 303 301 300 299 298 296 295 294 293 292 292 291 290 290 290 289 289 290 290 290 290 291 292 292 293 294 294 295 295 296 297 297 297 297 298 299 299 298 298 300 302 304 306 306 305 305 306 307 308 309 311 309 307 307 311 314
294 296 298 299 300 302 303 304 305 306 307 307 308 308 309 310 311 312 313 314 315 316 315 316 317 317 317 317 316 315 314 312 311 308 306 304 301 299 297 295 293 292 291 291 290 289 289 289 289 289 289 289 290 291 291 292 293 294 294 295 296 296 296 297 297 298 299 299 299 299 299 302 306 308 306 305 305 306 305 305 307 309 306 304 306 310 313
293 295 296 297 299 301 303 305 308 310 313 315 317 321 325 325 326 328 329 328 329 330 330 330 331 331 331 330 329 329 328 326 323 320 316 313 310 307 304 301 298 296 294 293 291 291 290 289 289 289 289 290 290 290 291 292 292 293 294 295 296 296 296 297 298 298 300 300 301 301 302 305 308 308 305 304 305 306 304 303 305 306 303 303 307 310 312
282 284 286 291 296 302 308 313 317 322 326 329 331 336 339 338 337 338 339 337 338 339 339 338 339 339 338 338 338 338 338 337 335 331 328 325 321 317 313 309 306 302 299 297 295 294 293 292 291 290 290 290 290 290 291 291 292 294 296 296 297 298 299 300 301 302 304 304 305 305 306 309 311 309 308 308 307 306 303 302 305 306 304 305 308 310 311
179 181 280 331 333 331 330 328 327 327 329 332 334 338 341 342 342 342 343 342 342 342 342 342 341 340 339 338 338 339 339 340 340 339 337 335 332 328 324 319 314 310 306 303 300 298 297 296 295 293 292 292 292 292 292 293 294 296 298 299 300 302 303 305 306 307 309 309 309 310 311 314 315 313 312 311 308 305 302 302 306 308 307 307 309 309 311
106 26 347 335 330 326 324 324 324 324 326 327 328 332 336 339 340 339 339 340 340 339 339 339 339 338 337 336 335 334 335 336 337 338 338 338 337 335 332 328 323 317 312 308 304 302 300 299 299 298 298 298 298 297 297 298 299 301 301 303 304 305 306 307 309 311 312 312 312 313 314 317 317 313 311 309 305 302 300 302 306 309 309 309 309 311 313
328 325 325 324 323 323 323 324 326 327 328 328 329 330 333 335 337 336 336 336 335 334 334 334 334 335 335 334 333 333 332 332 333 334 335 336 336 336 335 332 328 323 318 313 308 305 302 301 301 301 302 302 302 302 302 303 304 304 305 305 306 307 308 309 311 312 312 311 311 312 314 317 316 311 307 304 301 300 299 301 306 311 311 311 312 313 314
321 323 325 327 328 329 329 330 331 332 333 333 332 332 333 334 335 334 334 333 333 332 332 332 332 333 333 333 333 333 333 332 332 333 333 334 335 336 336 334 332 329 324 319 312 307 305 303 303 304 304 305 305 305 306 306 306 306 306 307 307 307 308 309 311 311 310 309 309 309 311 314 311 307 305 303 300 299 299 302 308 313 314 314 314 314 313
321 323 324 325 326 328 329 330 331 331 331 331 331 330 330 331 331 331 331 331 331 331 332 333 333 332 333 333 333 333 334 334 334 334 334 333 334 335 335 335 334 333 329 323 317 312 308 306 306 306 307 308 308 307 308 309 308 308 308 307 307 307 308 309 310 309 308 307 306 306 308 308 305 304 304 302 300 299 300 303 309 313 313 312 312 312 310
319 319 320 320 320 322 323 324 325 326 327 328 328 328 328 328 329 329 330 330 330 330 331 332 332 332 333 333 333 333 334 334 335 335 334 334 334 334 334 335 335 334 331 327 322 317 313 311 309 309 310 311 310 310 310 309 309 310 310 308 308 309 309 308 308 307 306 306 305 306 307 307 304 304 303 301 300 301 302 303 307 310 309 308 309 309 308
314 315 315 316 316 316 318 319 320 322 323 324 325 326 327 328 329 329 329 329 329 329 330 330 330 331 332 332 332 332 333 334 335 335 336 336 335 334 333 334 334 334 333 330 326 321 318 316 314 313 313 313 312 312 311 310 311 313 311 309 310 310 309 307 307 306 306 306 306 308 308 306 305 304 301 299 300 301 300 302 305 307 306 305 307 308 307
309 310 311 312 313 314 315 316 317 318 320 322 324 325 326 327 328 328 328 328 328 328 329 329 329 329 331 331 332 332 333 334 335 335 336 336 336 335 334 333 333 333 332 330 327 323 320 318 317 316 316 315 314 313 312 311 313 314 312 311 312 311 308 307 306 306 304 304 306 308 306 304 305 305 301 299 298 298 299 303 306 307 305 306 307 309 308
304 306 309 310 311 312 313 314 316 318 320 321 323 324 325 326 327 327 327 327 327 328 327 327 327 328 330 331 332 333 333 334 335 335 336 337 337 336 335 333 332 332 332 330 328 323 320 318 317 317 317 316 314 313 312 312 313 314 313 313 313 311 309 308 306 305 303 303 305 305 303 304 306 306 305 304 303 301 301 304 307 308 308 308 309 309 309
302 304 306 307 308 309 311 313 316 318 319 320 322 323 324 325 325 325 325 326 326 326 326 326 326 328 329 331 332 333 333 334 335 336 337 337 338 337 336 333 331 332 332 331 329 325 321 318 316 316 317 316 314 314 313 313 313 313 313 314 313 311 309 309 308 307 306 305 303 301 302 304 304 304 305 307 307 306 305 305 305 305 306 307 307 307 307
299 300 301 303 304 306 308 311 313 315 316 317 319 320 321 322 322 323 324 324 324 324 324 324 325 326 329 330 331 332 333 334 335 336 336 337 337 337 336 333 331 332 332 332 331 328 324 320 318 316 316 315 314 314 314 314 314 313 313 314 313 310 308 307 307 306 305 305 304 302 301 303 303 303 303 303 302 303 304 304 303 303 303 304 305 306 306
297 298 298 300 301 303 305 307 309 311 312 314 316 317 318 319 320 320 321 321 321 322 322 322 323 325 328 329 330 330 331 332 333 334 335 336 336 336 335 333 332 332 333 334 334 331 328 325 321 318 317 315 314 315 316 315 315 314 314 314 311 307 306 306 305 304 304 305 305 303 301 301 301 302 302 301 301 302 302 303 304 304 304 305 305 306 307
296 297 298 299 300 302 303 304 306 308 310 311 313 314 315 316 317 318 318 318 318 318 319 319 320 323 325 327 327 328 329 330 332 333 334 335 336 335 335 333 332 332 333 334 335 334 332 330 326 322 319 318 316 316 316 315 314 313 312 310 308 306 307 306 305 305 306 306 305 304 303 303 302 301 301 302 302 303 303 303 304 305 305 306 306 306 307
296 297 298 299 300 301 302 303 305 306 308 309 310 311 313 314 315 315 315 315 315 316 316 316 318 320 323 325 326 326 327 328 330 331 332 334 335 335 334 334 333 333 333 334 335 335 334 333 331 327 324 322 320 319 317 314 313 311 309 308 308 308 308 308 307 307 308 308 307 305 306 306 305 303 303 303 304 304 305 305 305 305 306 306 306 306 306
296 297 298 298 299 300 302 303 304 306 307 308 309 310 311 312 313 314 314 314 315 315 315 316 318 320 321 323 323 324 325 326 327 329 331 333 335 334 334 335 334 334 334 334 335 336 335 334 334 331 329 327 326 325 322 319 316 315 313 311 311 310 309 309 308 308 308 309 308 307 307 307 307 307 306 306 306 306 306 307 307 307 307 306 306 305 305
297 297 298 299 299 300 301 302 303 305 306 307 308 310 311 312 313 314 314 314 314 315 315 316 317 318 320 321 322 323 323 324 325 327 329 332 333 334 334 335 335 334 334 333 334 334 333 333 333 332 330 329 329 329 327 324 323 324 323 321 320 318 316 314 313 312 312 311 310 309 308 308 307 307 307 307 307 306 306 307 307 307 307 306 306 305 305
297 297 297 298 299 300 301 302 302 304 305 306 307 309 310 311 312 313 313 314 314 315 316 317 317 318 320 321 321 322 322 322 323 325 327 330 331 332 333 334 333 333 332 331 330 330 330 329 330 330 327 327 328 328 326 325 325 327 327 327 327 327 326 325 324 322 322 321 319 317 315 313 312 310 309 308 308 307 307 307 307 307 306 307 306 306 305
296 296 297 297 298 299 300 301 301 302 304 305 307 309 310 311 312 312 314 315 315 316 317 317 318 319 319 320 320 321 321 321 321 323 325 327 328 329 330 331 331 331 330 329 328 327 325 324 324 325 324 324 325 325 324 324 324 324 324 325 325 326 327 327 327 327 327 328 328 327 326 326 325 323 321 319 316 313 310 308 307 306 306 306 306 305 305
294 295 295 296 297 298 299 299 300 301 303 304 307 309 310 311 312 313 314 315 316 317 317 317 318 318 319 319 320 319 319 319 319 320 321 323 324 325 326 327 328 328 328 327 326 325 324 321 320 320 320 321 323 323 322 322 322 321 321 322 323 323 324 325 325 326 327 327 328 329 329 330 330 330 330 329 326 322 317 312 309 307 306 305 305 304 304
292 292 293 293 294 295 296 297 298 300 302 304 307 309 311 312 312 313 314 315 316 316 316 317 317 317 318 318 318 317 317 316 316 316 317 318 320 322 323 324 325 325 325 326 325 324 322 321 319 318 316 316 319 321 320 318 318 318 319 320 321 322 323 324 324 325 325 326 327 327 327 328 328 328 328 329 328 326 322 316 311 308 306 305 304 303 302
289 290 290 291 292 293 294 295 297 299 301 304 307 309 310 311 312 313 314 315 315 316 316 316 316 317 317 317 316 315 315 314 314 314 315 316 318 319 320 321 322 323 323 324 324 323 321 320 320 320 317 315 316 318 317 314 314 315 316 317 319 320 321 321 322 323 323 324 324 324 324 324 325 325 325 325 325 324 323 319 313 308 306 306 305 304 302
288 289 289 290 291 292 293 294 296 297 300 303 306 307 309 310 312 313 314 315 315 315 316 316 316 317 317 317 316 314 314 313 312 312 314 315 316 317 318 320 320 321 322 323 323 322 320 319 320 321 320 317 316 316 313 311 312 312 313 314 316 317 318 318 319 319 320 320 320 320 321 321 321 320 320 321 321 321 320 319 314 309 306 305 304 303 302
289 289 288 289 289 290 291 293 294 295 298 301 304 306 308 310 312 313 313 314 315 316 316 317 317 317 317 317 316 314 313 312 311 312 313 314 315 316 318 319 319 319 320 322 322 320 319 319 321 321 321 319 317 314 311 310 311 312 312 313 314 314 315 315 316 316 316 316 316 316 316 316 317 317 316 317 317 317 316 315 313 309 305 303 302 301 301
288 288 287 287 287 288 290 291 292 294 297 301 303 305 308 310 312 312 313 314 315 316 316 317 317 317 317 316 315 314 313 312 312 312 313 314 315 316 317 317 318 318 320 322 321 319 319 320 320 320 321 322 320 315 312 311 312 312 313 312 312 312 313 313 313 313 313 313 313 312 312 313 313 314 314 314 314 314 313 312 310 307 304 302 300 300 300
287 287 286 285 286 287 288 289 291 293 297 300 303 305 307 309 311 312 312 313 314 315 316 316 317 316 316 315 315 314 313 312 312 313 314 314 315 316 316 317 317 318 320 321 320 319 319 320 320 320 323 325 321 316 314 314 315 315 314 313 312 312 311 311 311 310 310 310 310 310 310 310 311 311 312 312 312 312 311 309 307 304 302 300 299 299 299
287 286 285 284 284 285 286 288 289 292 296 300 302 304 307 309 310 311 312 312 313 314 315 316 316 315 315 314 314 313 313 312 312 312 314 314 314 315 316 316 316 317 319 320 319 319 320 320 320 322 325 325 321 317 317 317 317 316 315 314 312 311 310 310 309 309 308 308 308 308 308 308 308 308 309 308 308 308 307 306 304 302 300 299 298 298 298
287 286 285 285 284 284 285 286 288 292 296 299 301 303 306 308 309 309 310 311 312 313 314 314 314 314 313 314 314 313 312 312 311 312 313 314 313 313 314 314 315 316 317 318 318 319 320 320 320 323 324 323 319 317 318 317 317 316 315 313 312 311 310 309 309 308 307 307 307 307 306 306 306 306 306 305 305 305 304 303 301 299 297 297 296 296 296
289 288 288 286 285 285 285 286 290 293 296 298 300 303 305 306 307 307 308 310 311 312 313 313 313 313 313 313 313 313 312 311 311 312 312 312 312 312 312 313 314 315 316 316 318 319 319 319 320 322 322 319 317 317 317 316 316 315 314 312 311 310 309 309 308 308 308 307 306 306 305 305 305 304 304 303 302 301 301 300 298 297 296 295 294 294 294
292 291 291 289 287 286 287 289 291 294 295 297 299 302 304 304 305 306 307 309 310 311 311 311 312 313 313 312 312 312 311 311 311 311 311 311 311 311 312 313 314 314 315 316 317 317 318 318 319 319 318 317 317 317 316 315 314 313 312 311 311 310 309 309 308 308 307 306 305 304 304 303 303 303 302 301 300 299 299 299 298 297 295 294 293 292 292
294 294 293 291 289 289 289 290 291 293 295 297 299 301 302 303 304 305 306 308 309 310 310 311 312 312 312 311 311 310 310 309 310 310 310 310 310 311 312 313 314 314 314 315 316 317 317 318 317 317 316 316 316 315 314 314 313 312 312 311 311 310 309 308 307 307 306 305 304 302 302 302 301 301 300 300 299 299 298 298 297 295 294 293 292 291 291
294 294 293 292 290 290 290 290 292 294 296 297 299 301 302 303 304 305 307 308 309 310 310 311 311 312 311 310 309 309 309 309 310 310 310 309 310 311 311 313 313 314 314 314 315 316 317 317 316 315 316 316 315 314 313 313 312 312 312 311 311 310 309 307 306 306 305 304 302 301 301 301 300 300 299 299 298 297 297 296 295 294 292 291 290 289 288
293 292 292 291 290 291 291 292 293 295 297 298 300 301 302 303 305 306 307 308 309 310 311 311 310 310 309 308 308 309 310 309 309 310 309 309 309 311 312 312 313 313 313 314 315 316 316 315 315 315 315 314 314 313 313 313 312 312 311 311 310 309 308 307 306 305 304 303 302 301 300 300 299 298 298 297 297 296 295 294 294 293 292 291 289 288 287
291 291 291 291 291 292 293 294 295 296 297 299 300 301 303 304 306 307 308 309 310 310 310 310 309 308 308 308 308 309 310 308 308 309 309 309 310 311 312 312 312 313 313 314 314 315 315 315 314 314 314 314 313 313 312 312 312 312 311 310 310 308 307 306 305 305 304 302 301 301 300 299 298 298 297 297 296 295 295 294 293 292 292 291 291 290 290
289 290 290 291 292 292 293 295 296 297 298 299 300 302 303 305 307 308 309 309 309 309 308 308 307 307 307 308 308 309 309 308 308 309 310 310 310 311 311 311 312 313 313 313 313 314 314 314 314 314 314 314 313 313 312 312 312 311 311 310 309 308 307 306 305 304 304 303 302 301 301 301 300 300 299 298 298 297 296 294 293 293 293 293 293 293 293
288 289 290 291 292 293 294 295 297 298 299 300 302 303 305 306 307 308 308 308 308 307 307 307 307 307 308 308 308 308 308 308 308 309 310 311 311 311 311 311 312 313 313 313 313 314 314 314 314 315 315 314 313 312 312 312 311 311 310 310 309 308 307 306 305 304 304 303 303 304 304 304 304 304 303 302 301 299 298 296 296 296 296 296 296 295 295
287 289 290 292 293 295 296 297 298 300 301 303 304 305 306 307 307 307 307 307 307 306 306 306 307 307 308 308 308 308 308 308 309 310 311 311 311 311 310 311 312 312 312 313 313 313 314 314 315 315 315 314 313 312 311 311 311 310 310 309 309 307 306 305 305 305 305 306 307 308 308 308 308 308 307 305 304 302 301 301 300 300 299 299 298 298 297
287 290 293 295 296 297 299 300 300 301 302 303 304 305 306 306 306 306 306 306 306 306 306 306 306 306 307 307 308 308 309 309 310 310 311 311 311 311 310 311 312 312 312 313 313 314 315 316 316 315 314 313 312 311 311 311 311 310 310 309 308 307 306 306 306 307 308 309 311 312 312 313 313 312 309 307 305 304 304 304 303 302 301 300 299 299 298
290 292 295 297 298 298 299 300 301 302 302 304 304 305 305 305 305 305 305 305 305 306 306 306 306 306 307 308 309 310 310 310 310 310 311 311 311 311 311 311 312 312 313 314 315 316 317 316 315 314 313 312 312 311 311 311 310 309 309 308 307 307 307 308 308 310 312 313 314 315 315 316 316 314 311 308 306 305 305 305 304 303 301 300 299 298 297
Height
5874 5875 5876 5876 5877 5877 5877 5878 5878 5878 5878 5878 5878 5877 5877 5877 5877 5876 5876 5875 5875 5875 5874 5874 5873 5872 5872 5871 5870 5869 5868 5867 5866 5865 5864 5863 5861 5860 5859 5857 5856 5854 5853 5851 5849 5847 5846 5844 5842 5840 5838 5836 5834 5831 5829 5827 5825 5823 5821 5818 5816 5814 5811 5809 5807 5805 5802 5799 5795 5792 5789 5786 5783 5779 5775 5771 5767 5763 5759 5756 5754 5751 5747 5742 5737 5735 5737
5875 5875 5876 5876 5877 5877 5877 5878 5878 5878 5878 5878 5877 5877 5877 5877 5876 5876 5875 5875 5874 5874 5873 5872 5872 5871 5870 5869 5868 5867 5866 5865 5864 5863 5862 5861 5859 5858 5856 5855 5853 5852 5850 5848 5847 5845 5843 5841 5839 5837 5835 5833 5831 5829 5827 5824 5822 5820 5817 5815 5813 5810 5808 5805 5803 5801 5799 5797 5793 5789 5786 5783 5779 5776 5771 5767 5764 5759 5756 5753 5749 5746 5744 5739 5733 5730 5732
5875 5876 5876 5877 5877 5878 5878 5878 5878 5878 5878 5878 5877 5877 5877 5876 5876 5875 5875 5874 5874 5873 5872 5872 5871 5870 5869 5868 5867 5866 5865 5864 5863 5862 5860 5859 5858 5856 5854 5853 5851 5850 5848 5846 5844 5842 5840 5838 5837 5835 5832 5830 5828 5826 5824 5821 5819 5817 5814 5812 5810 5807 5804 5801 5798 5795 5793 5791 5789 5785 5782 5779 5776 5772 5768 5764 5760 5755 5751 5748 5745 5741 5738 5736 5731 5724 5725
5875 5876 5877 5877 5877 5878 5878 5878 5878 5878 5878 5877 5877 5877 5876 5876 5876 5875 5874 5874 5873 5872 5872 5871 5870 5869 5868 5867 5866 5865 5864 5862 5861 5860 5859 5857 5856 5854 5853 5851 5849 5848 5846 5844 5842 5840 5838 5836 5834 5832 5830 5828 5826 5823 5821 5818 5816 5813 5811 5808 5806 5804 5801 5798 5795 5793 5789 5786 5784 5780 5778 5776 5773 5769 5764 5760 5756 5752 5748 5744 5741 5736 5732 5732 5729 5720 5717
5875 5876 5876 5877 5877 5877 5877 5877 5877 5877 5877 5877 5877 5876 5876 5875 5875 5874 5874 5873 5872 5871 5870 5870 5869 5868 5867 5866 5864 5863 5862 5861 5859 5858 5857 5855 5854 5852 5850 5849 5847 5845 5843 5841 5839 5837 5836 5833 5831 5829 5827 5825 5822 5820 5818 5815 5812 5810 5807 5804 5801 5799 5798 5795 5792 5790 5787 5783 5780 5776 5773 5772 5770 5766 5761 5756 5752 5748 5745 5741 5737 5732 5725 5725 5725 5718 5712
5875 5875 5876 5876 5876 5876 5877 5877 5877 5877 5876 5876 5876 5875 5875 5874 5874 5873 5873 5872 5871 5870 5869 5868 5867 5866 5865 5864 5863 5862 5860 5859 5858 5856 5855 5853 5852 5850 5848 5846 5844 5842 5840 5839 5836 5835 5833 5831 5828 5826 5824 5822 5819 5817 5814 5811 5809 5806 5803 5800 5797 5794 5794 5791 5788 5787 5784 5779 5775 5772 5769 5767 5765 5761 5756 5751 5747 5744 5741 5738 5733 5727 5721 5718 5717 5714 5710
5875 5875 5875 5876 5876 5876 5876 5876 5876 5876 5875 5875 5875 5874 5874 5873 5873 5872 5871 5870 5870 5869 5868 5867 5866 5865 5864 5862 5861 5860 5859 5857 5856 5854 5853 5851 5849 5848 5846 5844 5842 5840 5837 5835 5833 5831 5830 5827 5825 5823 5821 5818 5816 5813 5811 5808 5805 5802 5799 5796 5793 5789 5788 5786 5783 5783 5782 5776 5770 5766 5764 5761 5761 5757 5751 5745 5742 5740 5736 5733 5729 5723 5718 5714 5710 5707 5707
5874 5875 5875 5875 5875 5875 5875 5875 5875 5875 5875 5874 5874 5873 5873 5872 5871 5871 5870 5869 5868 5867 5866 5865 5864 5863 5861 5860 5859 5858 5856 5855 5853 5852 5850 5848 5847 5845 5843 5841 5839 5836 5834 5832 5830 5828 5826 5823 5821 5819 5817 5814 5811 5809 5807 5804 5801 5798 5794 5791 5788 5783 5782 5780 5776 5776 5778 5773 5766 5761 5758 5756 5756 5753 5746 5739 5736 5734 5731 5729 5725 5719 5713 5709 5705 5701 5701
5874 5874 5874 5874 5874 5874 5874 5874 5874 5874 5873 5873 5872 5872 5871 5870 5869 5869 5868 5867 5866 5865 5864 5862 5861 5860 5859 5857 5856 5855 5854 5852 5850 5848 5847 5845 5843 5841 5839 5837 5835 5832 5830 5828 5825 5823 5821 5819 5816 5814 5812 5809 5806 5803 5801 5798 5795 5792 5788 5785 5782 5777 5774 5772 5768 5768 5770 5768 5761 5757 5754 5751 5750 5746 5740 5734 5731 5729 5727 5724 5720 5715 5709 5703 5699 5696 5695
5873 5873 5873 5873 5873 5873 5873 5872 5872 5872 5871 5871 5870 5869 5869 5868 5867 5866 5865 5864 5863 5862 5861 5860 5858 5857 5856 5854 5853 5851 5850 5848 5847 5844 5842 5841 5838 5836 5834 5832 5830 5828 5825 5823 5820 5818 5816 5813 5811 5809 5806 5803 5800 5797 5795 5792 5789 5786 5782 5779 5776 5772 5768 5765 5761 5759 5762 5761 5755 5751 5749 5747 5745 5740 5733 5728 5725 5723 5722 5720 5716 5711 5705 5697 5694 5692 5690
5873 5873 5872 5872 5872 5872 5871 5871 5870 5870 5869 5869 5868 5867 5866 5865 5864 5863 5862 5861 5860 5859 5858 5857 5855 5854 5852 5851 5849 5848 5846 5844 5843 5840 5838 5836 5833 5831 5829 5827 5825 5822 5819 5817 5815 5812 5810 5808 5805 5803 5800 5797 5795 5792 5789 5786 5783 5780 5776 5772 5769 5766 5761 5758 5754 5751 5753 5754 5748 5744 5744 5743 5740 5734 5726 5721 5719 5717 5716 5716 5713 5708 5701 5693 5689 5688 5686
5872 5871 5871 5871 5870 5870 5870 5869 5868 5868 5867 5866 5866 5865 5864 5863 5862 5861 5860 5859 5858 5856 5855 5854 5853 5851 5850 5848 5846 5845 5843 5841 5839 5836 5834 5831 5828 5826 5824 5822 5819 5817 5813 5811 5809 5807 5805 5803 5800 5798 5795 5792 5789 5786 5783 5781 5777 5774 5771 5766 5763 5760 5756 5752 5749 5745 5745 5745 5741 5737 5738 5739 5735 5727 5720 5716 5713 5711 5710 5710 5710 5705 5696 5688 5686 5685 5682
5870 5870 5870 5869 5869 5869 5868 5867 5867 5866 5865 5865 5864 5863 5862 5861 5860 5859 5858 5857 5856 5855 5854 5852 5851 5849 5848 5846 5844 5842 5840 5838 5836 5833 5831 5828 5825 5822 5819 5817 5814 5811 5808 5805 5803 5800 5799 5796 5794 5793 5789 5786 5784 5782 5778 5775 5773 5769 5766 5762 5757 5754 5750 5747 5744 5740 5738 5737 5735 5731 5731 5735 5731 5721 5715 5712 5709 5705 5701 5702 5705 5702 5692 5685 5684 5682 5679
5869 5869 5869 5868 5868 5868 5867 5867 5866 5865 5865 5864 5863 5862 5861 5860 5859 5858 5857 5856 5855 5853 5852 5851 5849 5848 5846 5844 5842 5840 5838 5836 5833 5830 5827 5824 5821 5818 5814 5811 5808 5805 5802 5799 5796 5794 5791 5789 5787 5786 5784 5780 5778 5776 5773 5770 5768 5765 5761 5757 5753 5749 5746 5743 5739 5737 5734 5731 5730 5727 5726 5729 5725 5714 5709 5707 5703 5698 5693 5692 5698 5698 5688 5682 5681 5678 5675
5869 5868 5868 5868 5868 5867 5867 5866 5865 5865 5864 5863 5862 5861 5860 5859 5858 5857 5856 5855 5853 5852 5850 5849 5848 5846 5844 5842 5840 5838 5836 5833 5830 5827 5824 5821 5817 5814 5810 5806 5803 5799 5796 5793 5790 5787 5784 5782 5779 5777 5776 5774 5770 5769 5767 5764 5763 5761 5756 5752 5749 5745 5742 5739 5735 5733 5730 5725 5723 5721 5721 5722 5717 5708 5703 5700 5695 5691 5686 5683 5690 5692 5685 5679 5676 5673 5670
5869 5868 5868 5868 5867 5867 5866 5865 5865 5864 5863 5862 5861 5860 5859 5858 5856 5855 5854 5853 5852 5850 5848 5847 5846 5844 5842 5840 5838 5836 5833 5831 5828 5825 5821 5817 5814 5810 5806 5802 5798 5794 5791 5787 5784 5781 5778 5775 5772 5770 5769 5767 5763 5761 5761 5758 5756 5754 5751 5747 5744 5740 5737 5735 5732 5729 5726 5721 5718 5716 5715 5715 5711 5703 5699 5694 5689 5685 5680 5677 5683 5686 5681 5676 5672 5669 5665
5868 5868 5868 5867 5866 5866 5865 5864 5863 5862 5862 5861 5859 5858 5857 5856 5854 5853 5851 5850 5849 5847 5846 5844 5843 5841 5839 5837 5835 5833 5830 5828 5825 5822 5818 5814 5810 5806 5802 5798 5794 5790 5786 5783 5779 5776 5773 5770 5766 5764 5763 5761 5758 5755 5754 5753 5751 5749 5746 5742 5739 5736 5732 5730 5728 5725 5721 5717 5714 5712 5711 5710 5705 5699 5695 5690 5683 5679 5674 5671 5675 5679 5676 5671 5667 5663 5660
5868 5867 5867 5866 5865 5864 5864 5863 5862 5861 5860 5859 5858 5857 5855 5854 5852 5851 5849 5848 5846 5845 5843 5841 5839 5837 5835 5833 5831 5828 5826 5823 5820 5817 5814 5810 5806 5802 5797 5793 5790 5786 5782 5778 5774 5771 5768 5765 5762 5759 5758 5756 5753 5750 5749 5748 5745 5743 5741 5737 5733 5731 5728 5725 5723 5720 5716 5712 5708 5707 5708 5706 5700 5693 5690 5685 5678 5673 5670 5666 5666 5668 5668 5665 5661 5657 5653
5866 5866 5865 5865 5864 5863 5863 5862 5861 5860 5859 5858 5856 5855 5854 5852 5850 5849 5847 5845 5844 5842 5840 5838 5836 5833 5831 5829 5827 5824 5821 5818 5816 5813 5810 5805 5801 5798 5793 5789 5785 5781 5777 5773 5769 5766 5764 5761 5758 5754 5753 5751 5748 5745 5744 5743 5740 5738 5735 5732 5728 5725 5722 5720 5718 5713 5710 5707 5703 5700 5701 5700 5694 5688 5684 5679 5673 5668 5665 5662 5662 5661 5658 5656 5655 5652 5647
5865 5865 5864 5864 5863 5862 5861 5860 5859 5858 5857 5856 5854 5853 5851 5850 5848 5846 5844 5842 5840 5839 5837 5834 5832 5830 5828 5825 5823 5820 5817 5815 5811 5808 5805 5801 5798 5794 5790 5785 5781 5777 5773 5769 5765 5761 5759 5757 5754 5751 5749 5747 5744 5741 5739 5738 5737 5735 5731 5726 5725 5721 5716 5714 5712 5707 5703 5700 5697 5694 5693 5690 5687 5684 5678 5672 5669 5665 5659 5657 5658 5658 5653 5648 5648 5647 5642
5864 5863 5863 5862 5861 5860 5859 5858 5857 5856 5855 5854 5852 5851 5849 5847 5845 5843 5841 5839 5837 5835 5833 5831 5829 5826 5824 5822 5819 5817 5814 5811 5808 5805 5801 5797 5793 5790 5786 5782 5777 5772 5768 5764 5761 5757 5753 5752 5750 5747 5744 5742 5739 5736 5733 5731 5732 5733 5728 5722 5720 5718 5712 5707 5706 5704 5699 5694 5693 5692 5689 5684 5681 5678 5673 5668 5665 5662 5655 5650 5651 5652 5648 5642 5640 5640 5637
5862 5862 5861 5860 5860 5859 5858 5856 5855 5854 5853 5851 5850 5848 5846 5844 5842 5840 5838 5836 5834 5832 5830 5828 5825 5823 5820 5818 5815 5813 5810 5807 5805 5801 5798 5794 5790 5786 5782 5778 5773 5768 5764 5760 5756 5753 5749 5747 5745 5742 5740 5737 5734 5732 5729 5725 5725 5726 5724 5719 5715 5713 5708 5703 5700 5698 5694 5690 5690 5688 5684 5681 5677 5672 5666 5664 5662 5658 5651 5647 5644 5643 5640 5636 5632 5631 5631
5860 5860 5859 5859 5858 5857 5856 5854 5853 5852 5850 5848 5847 5845 5843 5841 5839 5836 5834 5832 5831 5829 5827 5824 5822 5819 5817 5814 5811 5809 5806 5803 5801 5798 5794 5791 5787 5783 5779 5775 5770 5766 5761 5756 5753 5749 5746 5744 5740 5738 5736 5733 5729 5727 5725 5721 5720 5718 5717 5715 5711 5707 5702 5698 5694 5691 5687 5687 5688 5683 5675 5675 5674 5667 5660 5658 5656 5653 5648 5644 5640 5637 5633 5629 5625 5622 5623
5858 5858 5857 5856 5855 5854 5853 5852 5850 5849 5847 5846 5844 5843 5841 5838 5836 5833 5831 5828 5826 5825 5823 5821 5818 5815 5813 5810 5807 5804 5802 5799 5796 5793 5790 5787 5783 5780 5776 5772 5768 5764 5758 5754 5750 5746 5743 5741 5737 5734 5732 5729 5725 5723 5719 5716 5715 5713 5710 5709 5706 5700 5696 5692 5688 5684 5679 5680 5683 5677 5669 5670 5669 5662 5657 5653 5649 5646 5643 5638 5636 5634 5629 5624 5619 5615 5613
5856 5855 5854 5853 5852 5851 5850 5849 5847 5846 5844 5843 5841 5840 5838 5835 5833 5831 5828 5825 5822 5821 5819 5817 5814 5811 5809 5806 5803 5800 5798 5795 5792 5789 5786 5783 5780 5776 5773 5769 5765 5762 5757 5751 5747 5743 5739 5736 5733 5729 5727 5724 5721 5719 5715 5711 5709 5707 5705 5703 5698 5693 5689 5685 5681 5678 5673 5672 5673 5670 5666 5667 5664 5656 5651 5649 5645 5642 5638 5632 5629 5628 5624 5620 5614 5608 5604
5853 5852 5851 5850 5849 5848 5846 5845 5844 5842 5841 5839 5838 5836 5834 5832 5830 5828 5826 5823 5820 5817 5815 5813 5811 5808 5806 5803 5800 5797 5794 5791 5788 5786 5782 5779 5776 5773 5769 5766 5762 5759 5754 5750 5745 5740 5736 5733 5729 5725 5722 5719 5716 5715 5712 5708 5704 5701 5699 5696 5690 5684 5682 5679 5674 5671 5670 5669 5668 5661 5658 5663 5663 5653 5643 5640 5639 5638 5634 5628 5623 5619 5616 5614 5610 5603 5597
5851 5849 5848 5847 5846 5844 5843 5842 5840 5839 5837 5836 5835 5833 5831 5829 5827 5825 5823 5820 5818 5815 5812 5810 5808 5805 5803 5800 5797 5794 5791 5787 5785 5782 5778 5775 5772 5769 5766 5762 5758 5755 5751 5747 5743 5739 5734 5730 5726 5722 5718 5715 5712 5710 5707 5703 5701 5697 5693 5689 5683 5679 5678 5674 5669 5666 5667 5667 5663 5654 5648 5651 5656 5649 5639 5633 5631 5629 5627 5623 5619 5614 5609 5607 5605 5601 5595
5848 5846 5845 5843 5842 5841 5839 5838 5836 5835 5833 5832 5831 5829 5827 5825 5824 5822 5820 5817 5815 5812 5809 5806 5804 5802 5799 5796 5793 5790 5787 5784 5781 5778 5775 5772 5768 5765 5762 5759 5755 5752 5748 5744 5740 5736 5732 5728 5723 5719 5714 5711 5708 5706 5702 5698 5695 5692 5687 5683 5679 5675 5673 5669 5663 5660 5660 5660 5656 5649 5643 5642 5644 5642 5635 5630 5626 5623 5620 5616 5613 5609 5604 5600 5597 5595 5593
5844 5843 5841 5840 5838 5837 5836 5834 5832 5831 5829 5828 5826 5825 5823 5821 5819 5818 5816 5813 5811 5808 5805 5802 5800 5798 5795 5792 5789 5787 5784 5780 5778 5775 5771 5768 5765 5761 5758 5755 5752 5748 5744 5740 5737 5733 5729 5726 5721 5716 5711 5706 5703 5701 5698 5693 5691 5687 5682 5678 5675 5671 5667 5663 5658 5654 5654 5653 5648 5643 5639 5637 5635 5633 5629 5625 5621 5617 5614 5610 5606 5602 5599 5594 5590 5587 5584
5841 5839 5837 5836 5834 5833 5832 5830 5828 5827 5825 5823 5822 5820 5818 5816 5815 5813 5811 5809 5807 5804 5801 5798 5796 5793 5791 5788 5786 5783 5780 5776 5774 5771 5768 5764 5761 5758 5754 5751 5748 5745 5741 5737 5734 5730 5727 5723 5719 5714 5708 5703 5699 5697 5693 5689 5687 5684 5678 5673 5671 5667 5662 5659 5653 5648 5647 5647 5643 5638 5634 5632 5629 5626 5623 5619 5615 5611 5608 5604 5600 5596 5592 5588 5584 5580 5576
5837 5835 5834 5832 5830 5829 5827 5826 5824 5822 5821 5819 5817 5816 5814 5812 5810 5808 5807 5805 5803 5800 5797 5794 5792 5789 5787 5784 5782 5779 5776 5773 5769 5767 5764 5761 5757 5754 5751 5748 5745 5742 5739 5735 5731 5728 5724 5720 5716 5711 5706 5701 5697 5693 5689 5684 5682 5680 5675 5669 5666 5662 5659 5656 5651 5646 5642 5640 5638 5633 5629 5626 5623 5619 5616 5612 5608 5604 5600 5597 5593 5589 5586 5582 5577 5573 5570
5833 5831 5830 5828 5826 5824 5823 5821 5819 5818 5816 5815 5813 5811 5809 5807 5805 5803 5802 5800 5798 5796 5794 5790 5787 5784 5782 5780 5777 5775 5772 5769 5766 5762 5759 5757 5754 5751 5748 5745 5742 5739 5736 5732 5728 5725 5722 5718 5714 5709 5704 5699 5694 5690 5686 5680 5676 5674 5671 5666 5662 5658 5655 5652 5648 5644 5639 5635 5632 5628 5624 5620 5617 5613 5610 5606 5602 5598 5594 5590 5586 5582 5579 5576 5572 5567 5563
5828 5827 5825 5824 5822 5820 5818 5816 5815 5813 5811 5810 5808 5806 5804 5803 5801 5799 5797 5795 5793 5791 5789 5786 5783 5780 5777 5774 5772 5770 5767 5765 5762 5759 5756 5753 5751 5748 5745 5742 5739 5736 5733 5729 5725 5722 5718 5714 5711 5707 5701 5696 5691 5686 5682 5677 5672 5668 5666 5662 5657 5654 5650 5647 5643 5639 5635 5630 5626 5622 5618 5615 5611 5607 5604 5600 5596 5591 5587 5582 5579 5576 5573 5569 5565 5561 5557
5824 5822 5821 5819 5817 5816 5814 5812 5810 5808 5807 5805 5804 5802 5800 5798 5796 5794 5792 5790 5788 5786 5784 5782 5779 5776 5773 5770 5767 5764 5762 5760 5758 5756 5753 5749 5746 5744 5741 5738 5735 5732 5729 5726 5722 5718 5713 5709 5706 5703 5698 5693 5687 5681 5676 5672 5668 5663 5659 5656 5652 5648 5644 5640 5636 5632 5628 5624 5620 5615 5611 5607 5604 5601 5597 5593 5589 5585 5580 5575 5570 5566 5565 5562 5559 5554 5550
5820 5818 5816 5815 5813 5811 5809 5807 5806 5804 5802 5801 5799 5797 5795 5793 5791 5789 5787 5785 5783 5781 5778 5776 5774 5771 5768 5766 5763 5760 5757 5755 5752 5750 5747 5745 5741 5738 5735 5733 5730 5727 5723 5720 5717 5713 5708 5704 5701 5698 5694 5689 5684 5677 5670 5665 5662 5658 5654 5650 5646 5642 5638 5633 5629 5625 5621 5617 5612 5608 5604 5600 5596 5593 5589 5586 5582 5577 5573 5569 5563 5558 5555 5553 5551 5547 5542
5815 5814 5812 5810 5809 5807 5805 5803 5801 5800 5798 5796 5795 5793 5791 5789 5786 5784 5782 5780 5778 5776 5773 5771 5769 5766 5763 5760 5758 5755 5752 5749 5747 5744 5741 5738 5735 5732 5729 5726 5724 5720 5717 5714 5710 5706 5702 5697 5694 5691 5688 5683 5679 5673 5665 5658 5655 5653 5648 5644 5640 5635 5631 5627 5622 5618 5614 5610 5605 5600 5596 5592 5588 5584 5580 5577 5574 5569 5564 5560 5556 5550 5546 5543 5541 5538 5534
5811 5809 5808 5806 5804 5802 5800 5798 5796 5795 5793 5792 5790 5788 5786 5784 5781 5779 5777 5775 5772 5770 5768 5765 5763 5760 5757 5754 5751 5748 5746 5743 5740 5738 5735 5731 5728 5725 5721 5719 5716 5713 5711 5708 5703 5698 5694 5691 5687 5684 5682 5678 5673 5667 5659 5652 5648 5646 5642 5638 5633 5628 5623 5618 5614 5609 5605 5602 5597 5592 5587 5584 5580 5576 5571 5567 5564 5561 5556 5550 5546 5541 5536 5533 5530 5528 5524
5806 5804 5803 5801 5799 5797 5795 5793 5791 5789 5788 5787 5785 5783 5781 5779 5777 5774 5772 5770 5767 5765 5762 5760 5757 5755 5752 5749 5745 5741 5739 5736 5733 5731 5728 5724 5721 5718 5714 5711 5707 5704 5702 5700 5695 5689 5685 5683 5679 5675 5674 5672 5666 5659 5652 5646 5642 5638 5634 5630 5625 5620 5614 5608 5603 5598 5594 5590 5587 5582 5577 5572 5569 5566 5561 5556 5552 5549 5545 5540 5535 5530 5526 5521 5518 5515 5512
5801 5799 5798 5796 5794 5792 5790 5788 5786 5784 5783 5782 5780 5778 5776 5774 5772 5769 5767 5764 5762 5759 5757 5754 5752 5748 5746 5743 5739 5735 5731 5729 5726 5724 5720 5716 5711 5709 5706 5702 5697 5693 5691 5689 5685 5679 5675 5673 5670 5665 5664 5663 5657 5649 5644 5639 5634 5630 5625 5620 5615 5610 5604 5599 5593 5587 5582 5578 5574 5570 5564 5559 5554 5550 5547 5542 5539 5536 5532 5528 5523 5518 5514 5511 5507 5503 5500
5795 5794 5792 5791 5789 5787 5785 5783 5781 5779 5778 5777 5775 5773 5771 5768 5766 5763 5761 5759 5756 5753 5751 5749 5746 5742 5739 5736 5733 5729 5725 5722 5719 5716 5714 5710 5704 5700 5697 5693 5689 5684 5681 5679 5675 5670 5665 5663 5659 5656 5654 5651 5645 5638 5633 5629 5625 5620 5615 5610 5605 5600 5595 5590 5585 5578 5572 5567 5563 5558 5553 5547 5541 5537 5532 5528 5524 5520 5517 5514 5511 5507 5502 5499 5496 5493 5489
5789 5788 5786 5785 5784 5782 5780 5778 5776 5775 5774 5772 5770 5767 5765 5762 5759 5757 5755 5752 5750 5747 5745 5742 5740 5736 5732 5729 5726 5723 5719 5715 5711 5708 5707 5704 5699 5694 5691 5687 5681 5676 5673 5669 5665 5662 5657 5652 5649 5647 5645 5640 5633 5627 5623 5618 5614 5610 5605 5600 5595 5590 5584 5579 5575 5569 5562 5556 5550 5546 5541 5536 5530 5525 5520 5515 5510 5506 5502 5499 5497 5494 5491 5487 5484 5481 5479
5783 5782 5781 5779 5778 5776 5775 5773 5771 5770 5768 5766 5764 5762 5759 5757 5754 5751 5748 5746 5744 5741 5738 5735 5733 5730 5726 5722 5719 5716 5711 5708 5704 5700 5698 5695 5691 5687 5684 5680 5674 5668 5665 5661 5658 5654 5649 5643 5639 5638 5634 5628 5622 5618 5613 5608 5603 5600 5595 5589 5584 5578 5573 5567 5563 5558 5552 5544 5536 5531 5527 5522 5517 5512 5507 5501 5496 5492 5489 5486 5483 5480 5478 5475 5473 5470 5468
5777 5776 5775 5773 5772 5770 5769 5768 5766 5765 5763 5760 5759 5757 5754 5751 5748 5745 5742 5740 5737 5735 5732 5729 5726 5723 5719 5715 5711 5708 5704 5700 5697 5693 5690 5687 5683 5677 5674 5672 5668 5661 5656 5653 5650 5646 5641 5636 5631 5628 5624 5618 5612 5608 5604 5598 5593 5589 5584 5579 5573 5566 5560 5554 5549 5544 5538 5531 5523 5517 5512 5508 5503 5499 5495 5489 5483 5478 5475 5474 5470 5466 5462 5460 5459 5458 5456
5771 5770 5769 5767 5765 5764 5763 5762 5761 5759 5757 5755 5753 5750 5748 5745 5742 5740 5737 5734 5731 5728 5725 5722 5719 5716 5713 5708 5704 5701 5697 5694 5691 5687 5681 5678 5675 5669 5663 5660 5658 5652 5646 5643 5640 5636 5632 5628 5622 5617 5612 5607 5602 5596 5592 5587 5581 5575 5571 5567 5562 5554 5546 5540 5534 5528 5523 5517 5511 5504 5499 5494 5489 5485 5481 5477 5472 5466 5461 5459 5457 5453 5449 5446 5444 5444 5443
5765 5764 5762 5761 5760 5759 5758 5757 5755 5754 5752 5749 5746 5744 5741 5739 5736 5734 5731 5728 5725 5722 5719 5715 5712 5709 5705 5700 5697 5694 5690 5686 5683 5679 5673 5667 5665 5662 5657 5651 5647 5642 5635 5632 5629 5625 5621 5617 5612 5606 5600 5595 5590 5584 5579 5574 5568 5562 5556 5552 5548 5541 5533 5525 5519 5513 5507 5501 5495 5489 5484 5479 5474 5470 5466 5463 5460 5456 5450 5445 5441 5438 5435 5433 5431 5430 5429
5759 5758 5757 5756 5755 5754 5753 5751 5749 5748 5746 5743 5740 5738 5735 5733 5730 5727 5724 5722 5719 5716 5712 5709 5705 5702 5698 5693 5690 5688 5685 5679 5675 5672 5666 5658 5654 5653 5650 5644 5639 5631 5623 5619 5617 5614 5610 5605 5600 5595 5589 5583 5576 5570 5566 5561 5555 5549 5542 5535 5530 5524 5517 5510 5503 5498 5492 5486 5480 5474 5470 5466 5460 5455 5450 5447 5444 5441 5437 5432 5427 5423 5418 5416 5415 5414 5414
5754 5753 5752 5751 5750 5749 5748 5746 5744 5742 5739 5737 5734 5732 5729 5727 5723 5720 5717 5715 5712 5708 5705 5702 5697 5694 5690 5686 5683 5682 5678 5671 5666 5664 5659 5650 5644 5642 5639 5635 5630 5624 5615 5608 5605 5602 5599 5594 5588 5583 5578 5571 5563 5555 5550 5544 5539 5533 5526 5519 5513 5506 5499 5493 5487 5481 5476 5470 5464 5459 5454 5450 5445 5439 5434 5429 5426 5423 5421 5417 5413 5408 5404 5400 5398 5399 5399
5749 5748 5747 5746 5745 5744 5742 5741 5738 5736 5732 5730 5728 5725 5722 5720 5717 5713 5710 5707 5704 5700 5697 5694 5689 5686 5683 5680 5677 5674 5671 5663 5658 5657 5653 5645 5636 5631 5626 5621 5618 5615 5608 5601 5594 5590 5587 5582 5576 5570 5564 5556 5548 5539 5532 5526 5521 5515 5508 5502 5495 5488 5481 5474 5468 5463 5458 5452 5445 5440 5435 5431 5426 5421 5416 5410 5407 5405 5404 5401 5397 5394 5390 5387 5385 5385 5385
5744 5743 5742 5740 5739 5738 5737 5736 5734 5730 5726 5723 5721 5718 5716 5713 5710 5706 5702 5700 5696 5692 5688 5684 5680 5677 5676 5673 5668 5665 5662 5656 5650 5647 5644 5639 5630 5622 5614 5609 5605 5602 5597 5591 5585 5579 5574 5569 5563 5557 5550 5542 5533 5524 5517 5510 5504 5498 5492 5485 5479 5472 5464 5456 5450 5445 5440 5434 5428 5423 5418 5413 5408 5403 5398 5394 5390 5388 5387 5385 5383 5380 5378 5376 5374 5373 5373
5738 5737 5737 5735 5734 5733 5732 5731 5729 5726 5722 5718 5715 5712 5709 5706 5703 5699 5695 5692 5688 5683 5679 5676 5672 5669 5666 5663 5659 5655 5652 5648 5644 5639 5634 5629 5622 5612 5603 5598 5595 5591 5585 5581 5576 5569 5563 5557 5550 5542 5534 5526 5517 5509 5501 5495 5489 5482 5475 5469 5461 5454 5446 5439 5433 5427 5423 5418 5414 5409 5404 5399 5394 5389 5385 5380 5376 5373 5372 5372 5371 5369 5367 5365 5364 5362 5361
5733 5732 5732 5730 5729 5728 5727 5725 5723 5721 5718 5714 5710 5706 5703 5699 5696 5692 5688 5684 5680 5676 5671 5667 5663 5660 5657 5654 5650 5646 5641 5638 5635 5631 5627 5622 5614 5603 5592 5587 5585 5580 5574 5568 5564 5558 5551 5544 5536 5526 5517 5508 5500 5492 5485 5479 5472 5465 5458 5450 5443 5436 5430 5424 5418 5413 5409 5405 5401 5396 5392 5387 5384 5379 5374 5369 5366 5362 5360 5360 5360 5359 5357 5355 5355 5353 5351
5728 5728 5727 5725 5722 5721 5721 5719 5717 5715 5713 5709 5705 5701 5697 5692 5688 5684 5681 5676 5672 5668 5664 5659 5654 5651 5648 5646 5642 5637 5631 5626 5623 5620 5617 5613 5606 5595 5583 5576 5572 5567 5560 5553 5548 5542 5535 5528 5520 5510 5501 5492 5484 5476 5469 5461 5455 5449 5442 5435 5428 5422 5417 5411 5406 5401 5397 5393 5389 5385 5381 5377 5374 5370 5365 5361 5357 5354 5351 5350 5350 5350 5348 5346 5345 5344 5342